Flag for Germany Weather past 2 weeks in Arnstadt, Thuringia, Germany

Now
36 °F

Overcast.


Feels Like: 33 °F
Forecast: 33 / 43 °F
Wind: 3 mph from Northwest

Location: Erfurt-Bindersleben

Current Time: Mar 6, 2015 at 12:36:16 AM

Latest Report: Mar 6, 2015 at 12:00 AM


Visibility: 25 mi

Pressure: 30.63 "Hg

Humidity: 88%

Dew point: 32 °F

Location of ArnstadtLocation

Historic Weather in Arnstadt — Graph

°F

Arnstadt temperature yesterday

Maximum temperature yesterday: 41 °F (at 3:00 PM)
Minimum temperature yesterday: 33 °F (at 7:00 AM)
Average temperature yesterday: 37 °F

Past Weeks' High & Low Weather Summary

 TemperatureHumidityPressure
High47 °F (Feb 26, 3:00 PM)98% (Feb 19, 6:00 AM)30.65 "Hg (Feb 19, 6:00 AM)
Low22 °F (Feb 19, 5:00 AM)46% (Feb 26, 2:00 PM)29.44 "Hg (Feb 21, 8:00 AM)
Average36 °F79%29.97 "Hg
* Reported Feb 18 10:00 PM — Mar 5 10:00 PM, Arnstadt, Weather by CustomWeather, © 2015

Note: Actual official high and low records may vary slightly from our data, if they occured in-between our weather recording intervals... More about our weather records

Advertising

Arnstadt weather history for previous 24 hours

 ConditionsComfort  
Time TempWeatherWind HumidityBarometerVisibility
10:00 PM
Thu, Mar 5
36 °FOvercast.5 mph87%30.63 "Hg31 mi
9:00 PM35 °FPassing clouds.3 mph87%30.62 "Hg31 mi
8:00 PM36 °FOvercast.3 mph85%30.61 "Hg37 mi
7:00 PM38 °FOvercast.3 mph83%30.61 "Hg37 mi
6:00 PM39 °FOvercast.6 mph78%30.59 "Hg37 mi
5:00 PM40 °FPartly sunny.6 mph71%30.58 "Hg37 mi
4:00 PM40 °FOvercast.7 mph70%30.57 "Hg37 mi
3:00 PM41 °FOvercast.5 mph74%30.57 "Hg37 mi
2:00 PM39 °FOvercast.6 mph79%30.58 "Hg31 mi
1:00 PM39 °FOvercast.6 mph83%30.58 "Hg37 mi
12:00 PM39 °FOvercast.7 mph75%30.58 "Hg43 mi
11:00 AM39 °FPartly sunny.7 mph78%30.57 "Hg43 mi
10:00 AM36 °FPartly sunny.6 mph77%30.58 "Hg43 mi
9:00 AM35 °FScattered clouds.6 mph84%30.57 "Hg37 mi
8:00 AM34 °FScattered clouds.5 mph84%30.55 "Hg31 mi
7:00 AM33 °FPartly sunny.7 mph86%30.52 "Hg28 mi
6:00 AM34 °FPassing clouds.8 mph84%30.48 "Hg22 mi
5:00 AM35 °FOvercast.9 mph86%30.45 "Hg19 mi
4:00 AM35 °FOvercast.7 mph91%30.43 "Hg16 mi
3:00 AM35 °FSprinkles. Low clouds.7 mph94%30.40 "Hg16 mi
2:00 AM34 °FPassing clouds.8 mph95%30.39 "Hg16 mi
1:00 AM34 °FLight mixture of precip. Passing clouds.9 mph94%30.37 "Hg12 mi
12:00 AM35 °FLight mixture of precip. Overcast.7 mph91%30.35 "Hg22 mi
Weather by CustomWeather, © 2015

See weather overviewHow to use our weather pages